sat.trackr.live / text

‹ back to catalog

STARLINK-2517

NORAD 48309 · 2021-036AK

PAYLOAD ACTIVE UNKNOWN

§ Identity

Operator
Country
US
Launch date
2021-04-29
Launch site
AFETR
Launch vehicle
Mass (kg)
RCS (m²)

Purposes: comms

External: N2YO · Heavens-Above · Gunter

§ Orbital elements

Epoch: 2026-05-25T02:21:01.189152Z

Period
94.11 min
Inclination
53.1586°
Eccentricity
0.0001280
Mean motion
15.30186109 rev/d
Perigee alt
474.4 km
Apogee alt
476.1 km
Semi-major
6,853.4 km
B*
-4.6718e-5
RAAN
93.2374°
Arg perigee
91.5644°
Mean anomaly
268.5504°
Rev number
27,992

§ Raw data

STARLINK-25171 48309U 21036AK  26145.09793043 -.00001742  00000+0 -46718-4 0  99942 48309  53.1586  93.2374 0001280  91.5644 268.5504 15.30186109279925

JSON: /api/v1/satellites/48309 · /tle

For live sub-satellite position, see the globe view (requires WebGL).

§ Visibility from observer

Set your observer location to see the next 7 days of passes ≥ 10°. The values pass through the URL so the page stays shareable.

No JS? Fill the form by hand. The geolocation button needs JavaScript.